| time (UTC) | temp C | wind direction | speed KPH | gust KPH | rain 1hr cm | rain 24hr cm | rain mn cm | humidity % | barometer mb |
| 20260903132338 | 36 | 310 | 0.0 | 9.7 | 0.00 | 0.00 | 0.00 | 31 | 1015.6 |
| 20260903131831 | 36 | 218 | 1.6 | 3.2 | 0.00 | 0.00 | 0.00 | 29 | 1015.5 |
| 20260903131333 | 36 | 69 | 0.0 | 3.2 | 0.00 | 0.00 | 0.00 | 30 | 1015.5 |
| 20260903130833 | 35 | 295 | 1.6 | 12.9 | 0.00 | 0.00 | 0.00 | 31 | 1015.4 |
| 20260903125833 | 35 | 17 | 1.6 | 9.7 | 0.00 | 0.00 | 0.00 | 32 | 1015.7 |
| 20260903125335 | 34 | 343 | 1.6 | 12.9 | 0.00 | 0.00 | 0.00 | 33 | 1015.9 |
| 20260903124338 | 35 | 310 | 6.4 | 12.9 | 0.00 | 0.00 | 0.00 | 31 | 1015.8 |
| 20260903123832 | 35 | 55 | 0.0 | 9.7 | 0.00 | 0.00 | 0.00 | 32 | 1015.8 |
| 20260903123332 | 35 | 313 | 1.6 | 6.4 | 0.00 | 0.00 | 0.00 | 31 | 1015.9 |
| 20260903122838 | 35 | 308 | 0.0 | 6.4 | 0.00 | 0.00 | 0.00 | 32 | 1016.0 |
| 20260903122335 | 35 | 50 | 0.0 | 1.6 | 0.00 | 0.00 | 0.00 | 31 | 1015.9 |
| 20260903121837 | 34 | 12 | 0.0 | 3.2 | 0.00 | 0.00 | 0.00 | 34 | 1016.1 |
| 20260903121334 | 34 | 39 | 0.0 | 3.2 | 0.00 | 0.00 | 0.00 | 35 | 1016.0 |
| 20260903120836 | 33 | 336 | 0.0 | 4.8 | 0.00 | 0.00 | 0.00 | 36 | 1015.9 |
| 20260903120336 | 33 | 318 | 3.2 | 9.7 | 0.00 | 0.00 | 0.00 | 34 | 1016.0 |
| 20260903115838 | 34 | 296 | 3.2 | 9.7 | 0.00 | 0.00 | 0.00 | 34 | 1016.3 |
| 20260903115335 | 34 | 149 | 1.6 | 3.2 | 0.00 | 0.00 | 0.00 | 33 | 1016.2 |
| 20260903114335 | 34 | 121 | 1.6 | 3.2 | 0.00 | 0.00 | 0.00 | 33 | 1016.1 |
| 20260903113839 | 34 | 97 | 1.6 | 3.2 | 0.00 | 0.00 | 0.00 | 34 | 1016.2 |
| 20260903113335 | 35 | 149 | 1.6 | 1.6 | 0.00 | 0.00 | 0.00 | 33 | 1016.3 |
| 20260903112836 | 35 | 158 | 0.0 | 1.6 | 0.00 | 0.00 | 0.00 | 34 | 1016.4 |
| 20260903112328 | 34 | 232 | 0.0 | 3.2 | 0.00 | 0.00 | 0.00 | 34 | 1016.4 |
| 20260903111325 | 34 | 127 | 0.0 | 3.2 | 0.00 | 0.00 | 0.00 | 36 | 1016.6 |
| 20260903110822 | 34 | 153 | 0.0 | 1.6 | 0.00 | 0.00 | 0.00 | 35 | 1016.8 |
| 20260903110322 | 33 | 153 | 0.0 | 1.6 | 0.00 | 0.00 | 0.00 | 36 | 1016.8 |
| 20260903105823 | 33 | 228 | 1.6 | 1.6 | 0.00 | 0.00 | 0.00 | 35 | 1016.8 |
| 20260903105326 | 34 | 166 | 0.0 | 1.6 | 0.00 | 0.00 | 0.00 | 36 | 1017.1 |
| 20260903104822 | 34 | 220 | 1.6 | 1.6 | 0.00 | 0.00 | 0.00 | 37 | 1017.1 |
| 20260903104322 | 33 | 132 | 0.0 | 3.2 | 0.00 | 0.00 | 0.00 | 38 | 1017.1 |
| 20260903103823 | 33 | 132 | 0.0 | 3.2 | 0.00 | 0.00 | 0.00 | 39 | 1017.2 |
| 20260903103329 | 33 | 147 | 0.0 | 1.6 | 0.00 | 0.00 | 0.00 | 40 | 1017.4 |
| 20260903102822 | 32 | 152 | 0.0 | 3.2 | 0.00 | 0.00 | 0.00 | 44 | 1017.5 |
| 20260903102322 | 32 | 152 | 0.0 | 3.2 | 0.00 | 0.00 | 0.00 | 45 | 1017.3 |
| 20260903101822 | 33 | 142 | 1.6 | 1.6 | 0.00 | 0.00 | 0.00 | 42 | 1017.5 |
| 20260903101322 | 32 | 131 | 0.0 | 1.6 | 0.00 | 0.00 | 0.00 | 42 | 1017.5 |
| 20260903100822 | 31 | 131 | 0.0 | 1.6 | 0.00 | 0.00 | 0.00 | 45 | 1017.7 |
| 20260903100319 | 31 | 133 | 1.6 | 3.2 | 0.00 | 0.00 | 0.00 | 49 | 1017.7 |
| 20260903095820 | 31 | 93 | 1.6 | 1.6 | 0.00 | 0.00 | 0.00 | 46 | 1017.8 |
| 20260903095319 | 31 | 24 | 0.0 | 1.6 | 0.00 | 0.00 | 0.00 | 47 | 1017.6 |
| 20260903094821 | 30 | 340 | 0.0 | 3.2 | 0.00 | 0.00 | 0.00 | 49 | 1017.7 |
| 20260903094319 | 30 | 296 | 1.6 | 6.4 | 0.00 | 0.00 | 0.00 | 50 | 1017.6 |
| 20260903093819 | 30 | 315 | 1.6 | 6.4 | 0.00 | 0.00 | 0.00 | 51 | 1017.8 |
| 20260903093322 | 30 | 305 | 0.0 | 4.8 | 0.00 | 0.00 | 0.00 | 50 | 1017.8 |
| 20260903092825 | 30 | 148 | 0.0 | 9.7 | 0.00 | 0.00 | 0.00 | 50 | 1017.6 |
| 20260903091823 | 29 | 310 | 0.0 | 4.8 | 0.00 | 0.00 | 0.00 | 49 | 1017.7 |
| 20260903091324 | 28 | 316 | 1.6 | 4.8 | 0.00 | 0.00 | 0.00 | 53 | 1018.0 |
| 20260903090826 | 29 | 34 | 0.0 | 1.6 | 0.00 | 0.00 | 0.00 | 50 | 1018.1 |
| 20260903090324 | 29 | 297 | 0.0 | 4.8 | 0.00 | 0.00 | 0.00 | 49 | 1018.0 |
| 20260903085823 | 28 | 303 | 0.0 | 4.8 | 0.00 | 0.00 | 0.00 | 52 | 1017.9 |
| 20260903085323 | 28 | 288 | 0.0 | 1.6 | 0.00 | 0.00 | 0.00 | 56 | 1018.1 |
| 20260903084829 | 28 | 358 | 0.0 | 0.0 | 0.00 | 0.00 | 0.00 | 58 | 1018.0 |
| 20260903083823 | 27 | 14 | 0.0 | 3.2 | 0.00 | 0.00 | 0.00 | 57 | 1018.1 |
| 20260903083322 | 27 | 310 | 0.0 | 0.0 | 0.00 | 0.00 | 0.00 | 58 | 1018.0 |
| 20260903082824 | 27 | 309 | 0.0 | 3.2 | 0.00 | 0.00 | 0.00 | 61 | 1017.8 |
| 20260903082323 | 27 | 309 | 0.0 | 3.2 | 0.00 | 0.00 | 0.00 | 61 | 1018.0 |
| 20260903080824 | 26 | 38 | 0.0 | 0.0 | 0.00 | 0.00 | 0.00 | 59 | 1017.9 |
| 20260903080320 | 26 | 38 | 0.0 | 0.0 | 0.00 | 0.00 | 0.00 | 60 | 1017.9 |
| 20260903075322 | 26 | 33 | 0.0 | 0.0 | 0.00 | 0.00 | 0.00 | 61 | 1018.2 |
| 20260903074820 | 25 | 32 | 0.0 | 0.0 | 0.00 | 0.00 | 0.00 | 64 | 1018.0 |
| 20260903074324 | 25 | 25 | 0.0 | 0.0 | 0.00 | 0.00 | 0.00 | 62 | 1018.0 |
| 20260903073819 | 25 | 4 | 0.0 | 0.0 | 0.00 | 0.00 | 0.00 | 63 | 1017.9 |
| 20260903073320 | 25 | 4 | 0.0 | 0.0 | 0.00 | 0.00 | 0.00 | 63 | 1018.1 |
| 20260903072823 | 23 | 352 | 0.0 | 0.0 | 0.00 | 0.00 | 0.00 | 65 | 1018.1 |
| 20260903072326 | 23 | 352 | 0.0 | 0.0 | 0.00 | 0.00 | 0.00 | 69 | 1018.1 |
| 20260903071823 | 22 | 352 | 0.0 | 0.0 | 0.00 | 0.00 | 0.00 | 70 | 1018.0 |
| 20260903071323 | 22 | 352 | 0.0 | 0.0 | 0.00 | 0.00 | 0.00 | 72 | 1018.1 |
| 20260903070820 | 22 | 352 | 0.0 | 0.0 | 0.00 | 0.00 | 0.00 | 70 | 1017.9 |
| 20260903070326 | 22 | 352 | 0.0 | 0.0 | 0.00 | 0.00 | 0.00 | 71 | 1018.0 |
| 20260903065819 | 21 | 352 | 0.0 | 0.0 | 0.00 | 0.00 | 0.00 | 71 | 1018.0 |
| 20260903064823 | 21 | 352 | 0.0 | 0.0 | 0.00 | 0.00 | 0.00 | 73 | 1018.2 |
| 20260903064323 | 21 | 352 | 0.0 | 0.0 | 0.00 | 0.00 | 0.00 | 74 | 1018.2 |
| 20260903063819 | 20 | 352 | 0.0 | 0.0 | 0.00 | 0.00 | 0.00 | 74 | 1018.1 |
| 20260903062808 | 20 | 351 | 0.0 | 0.0 | 0.00 | 0.00 | 0.00 | 78 | 1018.4 |
| 20260903062308 | 20 | 351 | 0.0 | 0.0 | 0.00 | 0.00 | 0.00 | 78 | 1018.2 |
| 20260903061807 | 20 | 351 | 0.0 | 0.0 | 0.00 | 0.00 | 0.00 | 77 | 1018.1 |
| 20260903060756 | 18 | 352 | 0.0 | 0.0 | 0.00 | 0.00 | 0.00 | 81 | 1018.1 |
| 20260903060257 | 18 | 351 | 0.0 | 0.0 | 0.00 | 0.00 | 0.00 | 84 | 1018.2 |
| 20260903055256 | 17 | 350 | 0.0 | 0.0 | 0.00 | 0.00 | 0.00 | 85 | 1018.1 |
| 20260903054755 | 17 | 350 | 0.0 | 0.0 | 0.00 | 0.00 | 0.00 | 87 | 1018.1 |
| 20260903054255 | 16 | 346 | 0.0 | 0.0 | 0.00 | 0.00 | 0.00 | 90 | 1018.0 |
| 20260903053750 | 16 | 346 | 0.0 | 0.0 | 0.00 | 0.00 | 0.00 | 90 | 1017.9 |
| 20260903053244 | 15 | 346 | 0.0 | 0.0 | 0.00 | 0.00 | 0.00 | 90 | 1017.8 |
| 20260903052744 | 15 | 346 | 0.0 | 0.0 | 0.00 | 0.00 | 0.00 | 90 | 1017.8 |
| 20260903052241 | 15 | 346 | 0.0 | 0.0 | 0.00 | 0.00 | 0.00 | 90 | 1017.6 |
| 20260903051736 | 15 | 346 | 0.0 | 0.0 | 0.00 | 0.00 | 0.00 | 90 | 1017.9 |
| 20260903051238 | 15 | 346 | 0.0 | 0.0 | 0.00 | 0.00 | 0.00 | 90 | 1017.9 |
| 20260903050732 | 15 | 346 | 0.0 | 0.0 | 0.00 | 0.00 | 0.00 | 91 | 1017.7 |
| 20260903050235 | 15 | 346 | 0.0 | 0.0 | 0.00 | 0.00 | 0.00 | 90 | 1017.7 |
| 20260903045731 | 15 | 346 | 0.0 | 0.0 | 0.00 | 0.00 | 0.00 | 90 | 1017.5 |
| 20260903044732 | 15 | 345 | 0.0 | 0.0 | 0.00 | 0.00 | 0.00 | 90 | 1017.6 |
| 20260903043731 | 15 | 345 | 0.0 | 0.0 | 0.00 | 0.00 | 0.00 | 90 | 1017.4 |
| 20260903043232 | 15 | 345 | 0.0 | 1.6 | 0.00 | 0.00 | 0.00 | 89 | 1017.4 |
| 20260903042233 | 15 | 340 | 0.0 | 0.0 | 0.00 | 0.00 | 0.00 | 89 | 1017.3 |
| 20260903041736 | 15 | 339 | 0.0 | 0.0 | 0.00 | 0.00 | 0.00 | 89 | 1017.5 |
| 20260903040734 | 16 | 339 | 0.0 | 0.0 | 0.00 | 0.00 | 0.00 | 88 | 1017.4 |
| 20260903040234 | 16 | 338 | 0.0 | 0.0 | 0.00 | 0.00 | 0.00 | 88 | 1017.4 |
| 20260903035736 | 16 | 338 | 0.0 | 0.0 | 0.00 | 0.00 | 0.00 | 88 | 1017.5 |
| 20260903035232 | 16 | 340 | 0.0 | 0.0 | 0.00 | 0.00 | 0.00 | 87 | 1017.5 |
| 20260903034232 | 16 | 340 | 0.0 | 1.6 | 0.00 | 0.00 | 0.00 | 88 | 1017.5 |
| 20260903033738 | 16 | 341 | 0.0 | 1.6 | 0.00 | 0.00 | 0.00 | 89 | 1017.7 |
| 20260903033232 | 16 | 341 | 0.0 | 0.0 | 0.00 | 0.00 | 0.00 | 88 | 1017.4 |
| 20260903032731 | 16 | 341 | 0.0 | 0.0 | 0.00 | 0.00 | 0.00 | 87 | 1017.6 |
| 20260903031735 | 16 | 341 | 0.0 | 0.0 | 0.00 | 0.00 | 0.00 | 87 | 1017.6 |
| 20260903031237 | 16 | 341 | 0.0 | 0.0 | 0.00 | 0.00 | 0.00 | 87 | 1017.6 |
| 20260903030730 | 16 | 341 | 0.0 | 1.6 | 0.00 | 0.00 | 0.00 | 87 | 1017.6 |
| 20260903030222 | 16 | 341 | 0.0 | 1.6 | 0.00 | 0.00 | 0.00 | 87 | 1017.5 |
| 20260903025218 | 16 | 342 | 0.0 | 0.0 | 0.00 | 0.00 | 0.00 | 86 | 1017.6 |
| 20260903024715 | 16 | 342 | 0.0 | 0.0 | 0.00 | 0.00 | 0.00 | 86 | 1017.6 |
| 20260903024211 | 16 | 342 | 0.0 | 0.0 | 0.00 | 0.00 | 0.00 | 86 | 1017.7 |
| 20260903023158 | 16 | 342 | 0.0 | 0.0 | 0.00 | 0.00 | 0.00 | 86 | 1017.8 |
| 20260903022632 | 16 | 342 | 0.0 | 0.0 | 0.00 | 0.00 | 0.00 | 86 | 1017.6 |
| 20260903022134 | 17 | 342 | 0.0 | 0.0 | 0.00 | 0.00 | 0.00 | 86 | 1017.6 |
| 20260903021140 | 16 | 342 | 0.0 | 0.0 | 0.00 | 0.00 | 0.00 | 86 | 1017.7 |
| 20260903020634 | 17 | 342 | 0.0 | 0.0 | 0.00 | 0.00 | 0.00 | 85 | 1017.6 |
| 20260903020135 | 17 | 342 | 0.0 | 0.0 | 0.00 | 0.00 | 0.00 | 85 | 1017.7 |
| 20260903015638 | 17 | 342 | 0.0 | 0.0 | 0.00 | 0.00 | 0.00 | 85 | 1017.5 |
| 20260903015129 | 17 | 341 | 0.0 | 0.0 | 0.00 | 0.00 | 0.00 | 85 | 1017.6 |
| 20260903014622 | 17 | 341 | 0.0 | 0.0 | 0.00 | 0.00 | 0.00 | 85 | 1017.6 |
| 20260903014126 | 17 | 342 | 0.0 | 0.0 | 0.00 | 0.00 | 0.00 | 85 | 1017.4 |
| 20260903013620 | 17 | 342 | 0.0 | 0.0 | 0.00 | 0.00 | 0.00 | 84 | 1017.4 |
| 20260903013123 | 17 | 341 | 0.0 | 0.0 | 0.00 | 0.00 | 0.00 | 84 | 1017.5 |
| 20260903012125 | 17 | 341 | 0.0 | 0.0 | 0.00 | 0.00 | 0.00 | 85 | 1017.3 |
| 20260903011620 | 17 | 342 | 0.0 | 0.0 | 0.00 | 0.00 | 0.00 | 85 | 1017.4 |
| 20260903011122 | 17 | 342 | 0.0 | 0.0 | 0.00 | 0.00 | 0.00 | 84 | 1017.2 |
| 20260903010629 | 17 | 342 | 0.0 | 0.0 | 0.00 | 0.00 | 0.00 | 84 | 1017.3 |
| 20260903005620 | 17 | 342 | 0.0 | 0.0 | 0.00 | 0.00 | 0.00 | 84 | 1017.4 |
| 20260903005122 | 17 | 342 | 0.0 | 0.0 | 0.00 | 0.00 | 0.00 | 84 | 1017.3 |
| 20260903004104 | 17 | 342 | 0.0 | 0.0 | 0.00 | 0.00 | 0.00 | 83 | 1017.4 |
| 20260903003602 | 17 | 342 | 0.0 | 0.0 | 0.00 | 0.00 | 0.00 | 82 | 1017.3 |
| 20260903003039 | 18 | 342 | 0.0 | 0.0 | 0.00 | 0.00 | 0.00 | 82 | 1017.3 |
| 20260903002533 | 18 | 342 | 0.0 | 0.0 | 0.00 | 0.00 | 0.00 | 81 | 1017.2 |
| 20260903002035 | 18 | 342 | 0.0 | 0.0 | 0.00 | 0.00 | 0.00 | 81 | 1017.5 |
| 20260903001032 | 18 | 342 | 0.0 | 0.0 | 0.00 | 0.00 | 0.00 | 79 | 1017.5 |
| 20260903000539 | 18 | 342 | 0.0 | 0.0 | 0.00 | 0.00 | 0.00 | 78 | 1017.5 |
| 20260903000030 | 18 | 341 | 0.0 | 0.0 | 0.00 | 0.00 | 0.00 | 77 | 1017.5 |
| 20260902235524 | 19 | 341 | 0.0 | 0.0 | 0.00 | 0.00 | 0.00 | 77 | 1017.5 |
| 20260902235018 | 19 | 341 | 0.0 | 0.0 | 0.00 | 0.00 | 0.00 | 76 | 1017.5 |
| 20260902234519 | 19 | 341 | 0.0 | 1.6 | 0.00 | 0.00 | 0.00 | 76 | 1017.5 |
| 20260902234015 | 19 | 341 | 0.0 | 1.6 | 0.00 | 0.00 | 0.00 | 75 | 1017.6 |
| 20260902233507 | 19 | 343 | 0.0 | 0.0 | 0.00 | 0.00 | 0.00 | 77 | 1017.7 |
| 20260902233008 | 19 | 343 | 0.0 | 0.0 | 0.00 | 0.00 | 0.00 | 77 | 1017.6 |
| 20260902232503 | 18 | 349 | 0.0 | 0.0 | 0.00 | 0.00 | 0.00 | 77 | 1017.7 |
| 20260902232000 | 18 | 353 | 0.0 | 0.0 | 0.00 | 0.00 | 0.00 | 77 | 1017.6 |
| 20260902231455 | 18 | 349 | 0.0 | 0.0 | 0.00 | 0.00 | 0.00 | 77 | 1017.4 |
| 20260902231001 | 18 | 346 | 0.0 | 0.0 | 0.00 | 0.00 | 0.00 | 77 | 1017.6 |
| 20260902230447 | 18 | 344 | 0.0 | 0.0 | 0.00 | 0.00 | 0.00 | 76 | 1017.8 |
| 20260902225945 | 18 | 342 | 0.0 | 0.0 | 0.00 | 0.00 | 0.00 | 76 | 1017.8 |
| 20260902225445 | 19 | 342 | 0.0 | 0.0 | 0.00 | 0.00 | 0.00 | 76 | 1017.7 |
| 20260902224945 | 18 | 342 | 0.0 | 0.0 | 0.00 | 0.00 | 0.00 | 76 | 1017.5 |
| 20260902224444 | 18 | 340 | 0.0 | 0.0 | 0.00 | 0.00 | 0.00 | 77 | 1017.6 |
| 20260902223948 | 18 | 336 | 0.0 | 0.0 | 0.00 | 0.00 | 0.00 | 77 | 1017.6 |
| 20260902223430 | 18 | 336 | 0.0 | 0.0 | 0.00 | 0.00 | 0.00 | 77 | 1017.6 |
| 20260902222935 | 18 | 332 | 0.0 | 0.0 | 0.00 | 0.00 | 0.00 | 76 | 1017.6 |
| 20260902222413 | 19 | 332 | 0.0 | 0.0 | 0.00 | 0.00 | 0.00 | 76 | 1017.4 |
| 20260902221906 | 19 | 332 | 0.0 | 0.0 | 0.00 | 0.00 | 0.00 | 76 | 1017.4 |
| 20260902221410 | 19 | 333 | 0.0 | 0.0 | 0.00 | 0.00 | 0.00 | 76 | 1017.5 |
| 20260902220904 | 19 | 332 | 0.0 | 0.0 | 0.00 | 0.00 | 0.00 | 76 | 1017.3 |
| 20260902220354 | 19 | 331 | 0.0 | 0.0 | 0.00 | 0.00 | 0.00 | 76 | 1017.6 |
| 20260902215856 | 19 | 331 | 0.0 | 0.0 | 0.00 | 0.00 | 0.00 | 75 | 1017.5 |
| 20260902215352 | 19 | 329 | 0.0 | 0.0 | 0.00 | 0.00 | 0.00 | 75 | 1017.4 |
| 20260902214845 | 20 | 311 | 0.0 | 0.0 | 0.00 | 0.00 | 0.00 | 74 | 1017.2 |
| 20260902213821 | 20 | 311 | 0.0 | 1.6 | 0.00 | 0.00 | 0.00 | 73 | 1017.1 |
| 20260902213301 | 20 | 310 | 0.0 | 1.6 | 0.00 | 0.00 | 0.00 | 73 | 1017.2 |
| 20260902212756 | 20 | 310 | 0.0 | 1.6 | 0.00 | 0.00 | 0.00 | 72 | 1017.1 |
| 20260902212238 | 20 | 310 | 0.0 | 1.6 | 0.00 | 0.00 | 0.00 | 71 | 1017.0 |
| 20260902211737 | 21 | 309 | 0.0 | 3.2 | 0.00 | 0.00 | 0.00 | 70 | 1017.1 |
| 20260902211231 | 21 | 306 | 0.0 | 3.2 | 0.00 | 0.00 | 0.00 | 70 | 1017.1 |
| 20260902210730 | 21 | 198 | 0.0 | 1.6 | 0.00 | 0.00 | 0.00 | 69 | 1016.9 |
| 20260902210236 | 21 | 241 | 0.0 | 1.6 | 0.00 | 0.00 | 0.00 | 68 | 1017.0 |
| 20260902205740 | 21 | 302 | 0.0 | 0.0 | 0.00 | 0.00 | 0.00 | 68 | 1017.0 |
| 20260902204734 | 21 | 302 | 0.0 | 1.6 | 0.00 | 0.00 | 0.00 | 67 | 1017.2 |
| 20260902204231 | 21 | 303 | 0.0 | 1.6 | 0.00 | 0.00 | 0.00 | 66 | 1017.1 |
| 20260902203733 | 22 | 306 | 0.0 | 1.6 | 0.00 | 0.00 | 0.00 | 65 | 1017.0 |
| 20260902203233 | 22 | 307 | 0.0 | 0.0 | 0.00 | 0.00 | 0.00 | 63 | 1017.0 |
| 20260902202731 | 22 | 307 | 0.0 | 0.0 | 0.00 | 0.00 | 0.00 | 62 | 1017.2 |
| 20260902202234 | 23 | 307 | 0.0 | 1.6 | 0.00 | 0.00 | 0.00 | 60 | 1017.0 |
| 20260902201236 | 24 | 307 | 0.0 | 1.6 | 0.00 | 0.00 | 0.00 | 56 | 1017.1 |
| 20260902200730 | 24 | 306 | 1.6 | 3.2 | 0.00 | 0.00 | 0.00 | 55 | 1017.1 |
| 20260902195731 | 25 | 308 | 1.6 | 4.8 | 0.00 | 0.00 | 0.00 | 53 | 1016.9 |
| 20260902195234 | 25 | 307 | 0.0 | 6.4 | 0.00 | 0.00 | 0.00 | 52 | 1017.1 |
| 20260902194735 | 25 | 312 | 1.6 | 6.4 | 0.00 | 0.00 | 0.00 | 51 | 1016.8 |
| 20260902194233 | 25 | 331 | 3.2 | 11.3 | 0.00 | 0.00 | 0.00 | 50 | 1017.0 |
| 20260902193733 | 25 | 322 | 4.8 | 11.3 | 0.00 | 0.00 | 0.00 | 48 | 1017.1 |
| 20260902192734 | 26 | 311 | 3.2 | 6.4 | 0.00 | 0.00 | 0.00 | 46 | 1017.1 |
| 20260902192234 | 26 | 331 | 3.2 | 11.3 | 0.00 | 0.00 | 0.00 | 45 | 1017.0 |
| 20260902191736 | 26 | 312 | 8.0 | 11.3 | 0.00 | 0.00 | 0.00 | 44 | 1016.7 |
| 20260902190733 | 26 | 327 | 3.2 | 9.7 | 0.00 | 0.00 | 0.00 | 45 | 1016.7 |
| 20260902190236 | 26 | 313 | 8.0 | 9.7 | 0.00 | 0.00 | 0.00 | 44 | 1016.8 |
| 20260902185234 | 26 | 312 | 3.2 | 6.4 | 0.00 | 0.00 | 0.00 | 47 | 1016.5 |
| 20260902184218 | 27 | 317 | 4.8 | 9.7 | 0.00 | 0.00 | 0.00 | 49 | 1016.4 |
| 20260902183215 | 27 | 326 | 6.4 | 9.7 | 0.00 | 0.00 | 0.00 | 53 | 1016.3 |
| 20260902182711 | 27 | 311 | 1.6 | 11.3 | 0.00 | 0.00 | 0.00 | 54 | 1016.3 |
| 20260902182213 | 27 | 313 | 3.2 | 11.3 | 0.00 | 0.00 | 0.00 | 54 | 1016.2 |
| 20260902181701 | 27 | 322 | 0.0 | 9.7 | 0.00 | 0.00 | 0.00 | 53 | 1016.3 |
| 20260902181155 | 27 | 320 | 1.6 | 9.7 | 0.00 | 0.00 | 0.00 | 52 | 1016.1 |
| 20260902180658 | 27 | 317 | 1.6 | 6.4 | 0.00 | 0.00 | 0.00 | 51 | 1016.3 |
| 20260902180148 | 27 | 318 | 1.6 | 6.4 | 0.00 | 0.00 | 0.00 | 50 | 1016.0 |
| 20260902175642 | 28 | 300 | 0.0 | 6.4 | 0.00 | 0.00 | 0.00 | 49 | 1015.9 |
| 20260902175148 | 28 | 322 | 3.2 | 6.4 | 0.00 | 0.00 | 0.00 | 47 | 1016.0 |
| 20260902174643 | 28 | 318 | 4.8 | 6.4 | 0.00 | 0.00 | 0.00 | 47 | 1015.9 |
| 20260902174142 | 28 | 323 | 1.6 | 11.3 | 0.00 | 0.00 | 0.00 | 48 | 1015.8 |
| 20260902173646 | 28 | 308 | 0.0 | 11.3 | 0.00 | 0.00 | 0.00 | 49 | 1015.9 |
| 20260902173150 | 28 | 312 | 1.6 | 4.8 | 0.00 | 0.00 | 0.00 | 50 | 1015.7 |
| 20260902172646 | 28 | 315 | 4.8 | 4.8 | 0.00 | 0.00 | 0.00 | 50 | 1015.7 |
| 20260902172148 | 28 | 313 | 1.6 | 4.8 | 0.00 | 0.00 | 0.00 | 51 | 1015.5 |
| 20260902171145 | 28 | 309 | 6.4 | 9.7 | 0.00 | 0.00 | 0.00 | 50 | 1015.7 |
| 20260902170645 | 29 | 314 | 1.6 | 11.3 | 0.00 | 0.00 | 0.00 | 49 | 1015.5 |
| 20260902170142 | 29 | 330 | 3.2 | 11.3 | 0.00 | 0.00 | 0.00 | 48 | 1015.6 |
| 20260902165643 | 29 | 306 | 3.2 | 11.3 | 0.00 | 0.00 | 0.00 | 48 | 1015.6 |
| 20260902164645 | 29 | 320 | 1.6 | 9.7 | 0.00 | 0.00 | 0.00 | 46 | 1015.4 |
| 20260902164142 | 30 | 344 | 0.0 | 12.9 | 0.00 | 0.00 | 0.00 | 45 | 1015.4 |
| 20260902163645 | 30 | 314 | 4.8 | 12.9 | 0.00 | 0.00 | 0.00 | 44 | 1015.5 |
| 20260902163146 | 30 | 257 | 3.2 | 9.7 | 0.00 | 0.00 | 0.00 | 43 | 1015.8 |
| 20260902162643 | 30 | 26 | 0.0 | 11.3 | 0.00 | 0.00 | 0.00 | 43 | 1015.5 |
| 20260902162144 | 30 | 310 | 4.8 | 11.3 | 0.00 | 0.00 | 0.00 | 41 | 1015.5 |
| 20260902161645 | 30 | 317 | 1.6 | 11.3 | 0.00 | 0.00 | 0.00 | 42 | 1015.6 |
| 20260902161146 | 30 | 320 | 3.2 | 11.3 | 0.00 | 0.00 | 0.00 | 41 | 1015.5 |
| 20260902160651 | 30 | 3 | 1.6 | 9.7 | 0.00 | 0.00 | 0.00 | 41 | 1015.6 |
| 20260902160145 | 31 | 251 | 0.0 | 16.1 | 0.00 | 0.00 | 0.00 | 42 | 1015.7 |
| 20260902154638 | 31 | 314 | 6.4 | 17.7 | 0.00 | 0.00 | 0.00 | 41 | 1015.7 |
| 20260902154138 | 31 | 316 | 6.4 | 17.7 | 0.00 | 0.00 | 0.00 | 41 | 1015.6 |
| 20260902153631 | 31 | 330 | 0.0 | 11.3 | 0.00 | 0.00 | 0.00 | 41 | 1015.5 |
| 20260902153130 | 31 | 313 | 3.2 | 11.3 | 0.00 | 0.00 | 0.00 | 40 | 1015.7 |
| 20260902152137 | 31 | 330 | 3.2 | 11.3 | 0.00 | 0.00 | 0.00 | 39 | 1015.5 |
| 20260902151631 | 31 | 315 | 1.6 | 9.7 | 0.00 | 0.00 | 0.00 | 39 | 1015.4 |
| 20260902151133 | 31 | 319 | 0.0 | 11.3 | 0.00 | 0.00 | 0.00 | 39 | 1015.6 |
| 20260902150633 | 31 | 326 | 4.8 | 11.3 | 0.00 | 0.00 | 0.00 | 38 | 1015.8 |
| 20260902150134 | 31 | 269 | 3.2 | 11.3 | 0.00 | 0.00 | 0.00 | 37 | 1015.6 |
| 20260902145633 | 32 | 324 | 6.4 | 6.4 | 0.00 | 0.00 | 0.00 | 36 | 1015.5 |
| 20260902145130 | 32 | 305 | 0.0 | 4.8 | 0.00 | 0.00 | 0.00 | 36 | 1015.3 |
| 20260902144631 | 32 | 6 | 0.0 | 1.6 | 0.00 | 0.00 | 0.00 | 36 | 1015.3 |
| 20260902144134 | 32 | 117 | 0.0 | 3.2 | 0.00 | 0.00 | 0.00 | 36 | 1015.4 |
| 20260902143632 | 32 | 108 | 0.0 | 3.2 | 0.00 | 0.00 | 0.00 | 37 | 1015.4 |
| 20260902143131 | 32 | 129 | 0.0 | 3.2 | 0.00 | 0.00 | 0.00 | 36 | 1015.3 |
| 20260902142633 | 32 | 330 | 0.0 | 3.2 | 0.00 | 0.00 | 0.00 | 37 | 1015.2 |
| 20260902142130 | 32 | 31 | 1.6 | 12.9 | 0.00 | 0.00 | 0.00 | 38 | 1015.4 |
| 20260902141634 | 32 | 86 | 1.6 | 12.9 | 0.00 | 0.00 | 0.00 | 38 | 1015.3 |
| 20260902141133 | 32 | 7 | 1.6 | 11.3 | 0.00 | 0.00 | 0.00 | 39 | 1015.5 |
| 20260902140630 | 32 | 22 | 0.0 | 1.6 | 0.00 | 0.00 | 0.00 | 38 | 1015.4 |
| 20260902140131 | 32 | 8 | 0.0 | 0.0 | 0.00 | 0.00 | 0.00 | 36 | 1015.8 |
| 20260902135133 | 32 | 354 | 0.0 | 3.2 | 0.00 | 0.00 | 0.00 | 36 | 1015.5 |
| 20260902134634 | 33 | 310 | 3.2 | 3.2 | 0.00 | 0.00 | 0.00 | 36 | 1015.4 |
| 20260902134136 | 33 | 327 | 0.0 | 3.2 | 0.00 | 0.00 | 0.00 | 35 | 1015.4 |
| 20260902133133 | 33 | 331 | 0.0 | 6.4 | 0.00 | 0.00 | 0.00 | 35 | 1015.5 |